[[{"header":{"parameterUnit":"m.s-1","parameterCategory":1,"la1":30.2991,"la2":30.254,"lo1":-89.0895,"lo2":-89.0444,"dy":0.0017,"dx":0.0017,"nx":28,"ny":28,"refTime":"2024-05-27T09:00:00:Z","depth":0,"parameterNumber":2,"parameterNumberName":"U-component_of_WINDS"},"data":[0,0,0,0,0,0,0,0,0,0,0,0,0,0,0,0,0,0,0,0,0,0,0,0,0,0,0,0,0,0,0,0,0,0,0,0,0,0,0,0,0,0,0,0,0,0,0,0,0,0,0,0,0,0,0,0,0,0,2.0155,2.0155,0,2.0173,2.0173,2.0173,2.0114,2.0112,2.011,2.0109,2.0129,2.0131,2.0133,0,0,0,0,0,0,0,0,0,0,0,0,0,2.0069,2.007,2.0154,2.0155,2.0155,2.0173,2.0173,2.0173,2.0114,2.0112,2.011,2.0108,2.0128,2.013,2.0133,0,0,0,0,0,0,0,0,0,0,0,0,0,2.0098,2.0071,2.0154,2.0128,2.0125,2.0173,2.0173,2.0173,2.0115,2.0112,2.0109,2.0107,2.0127,2.013,2.0134,2.0208,0,0,2.0144,2.0145,0,0,0,0,0,0,0,0,2.0097,2.0102,2.0131,2.013,2.0127,2.0138,2.015,2.0185,2.0115,2.0119,2.0109,2.0105,2.0134,2.0137,2.0146,2.0209,2.021,2.0144,2.0146,2.0147,2.0148,0,0,0,0,0,0,0,2.0095,2.01,2.0162,2.0132,2.0129,2.0115,2.0116,2.0156,2.0141,2.0118,2.0114,2.0117,2.0132,2.0143,2.0146,2.021,2.0144,2.0147,2.0149,2.015,2.0332,2.0334,0,0,0,0,0,0,2.0096,2.0099,2.0161,2.0162,2.0105,2.0118,2.012,2.0137,2.0141,2.0139,2.0119,2.0114,2.0139,2.0142,2.0147,2.0232,2.0147,2.015,2.0152,2.0329,2.0332,2.0335,0,0,0,0,0,0,2.0094,2.0102,2.016,2.0129,2.0136,2.0123,2.0143,2.0139,2.015,2.0141,2.0139,2.0133,2.0137,2.0142,2.0192,2.0232,2.0152,2.0155,2.0326,2.033,2.0334,2.0404,0,0,0,0,0,0,2.0092,2.0102,2.013,2.0131,2.0138,2.0206,2.0146,2.0142,2.0155,2.0149,2.0153,2.0151,2.0135,2.0188,2.0196,2.0235,2.0157,2.0322,2.0328,2.0333,2.0398,2.041,2.042,0,0,0,0,0,2.0089,2.015,2.0132,2.014,2.0173,2.0209,2.0213,2.0192,2.0159,2.0187,2.0181,2.0151,2.0226,2.0193,2.0202,2.0242,2.0319,2.0326,2.0332,2.0393,2.0408,2.042,0,0,0,0,0,0,2.0156,2.015,2.013,2.0192,2.0201,2.0198,2.0233,2.0209,2.0228,2.0221,2.0195,2.0196,2.0251,2.0252,2.0215,2.0313,2.0267,2.0276,2.031,2.0324,2.0335,2.0333,2.016,0,0,0,0,0,2.0177,2.0207,2.02,2.0256,2.0261,2.0247,2.0262,2.0245,2.0253,2.0257,2.0255,2.0265,2.029,2.0307,2.0331,2.0398,2.0397,2.043,2.0441,2.0451,2.0458,2.0491,2.0505,2.0357,2.0356,2.0356,0,0,2.0223,2.0223,2.0244,2.0269,2.0274,2.0305,2.025,2.0286,2.0308,2.0262,2.0309,2.0308,2.0317,2.0376,2.0402,2.0378,2.0499,2.0459,2.0466,2.0468,2.0499,2.0513,2.0526,2.0361,2.036,2.0359,0,0,2.0321,2.0325,2.0371,2.0376,2.0384,2.0374,2.0385,2.0386,2.0383,2.0429,2.0395,2.0421,2.0466,2.0473,2.0483,2.0582,2.0554,2.059,2.0648,2.0681,2.0693,2.0703,2.0736,2.0749,2.0597,2.0598,2.0598,0,2.0377,2.0421,2.0398,2.0434,2.0446,2.0405,2.0451,2.0458,2.0473,2.0482,2.0456,2.0509,2.0513,2.0571,2.0595,2.0605,2.0616,2.0589,2.0693,2.0703,2.0712,2.0744,2.0756,2.0602,2.0601,2.0601,2.0601,0,2.0488,2.0519,2.0555,2.057,2.0585,2.0627,2.0609,2.0628,2.0609,2.0602,2.0648,2.0651,2.0673,2.0686,2.0669,2.0742,2.0726,2.0697,2.065,2.0731,2.076,2.0772,2.0608,2.0606,2.0605,2.0604,0,0,2.0629,2.0628,2.0641,2.0646,2.0651,2.0675,2.0714,2.0734,2.075,2.0762,2.0793,2.0831,2.0803,2.0814,2.0798,2.0827,2.0903,2.0793,2.0793,2.0812,2.0981,2.1002,2.1016,2.0885,2.0887,2.0889,2.0979,0,2.0723,2.0789,2.0768,2.0834,2.0862,2.0823,2.0856,2.0863,2.0856,2.0879,2.0872,2.0898,2.0861,2.0867,2.0894,2.0888,2.0936,2.0881,2.0913,2.0914,2.091,2.1032,2.1054,2.1139,2.0991,2.0993,2.0994,0,2.0842,2.0857,2.0926,2.0924,2.0935,2.0965,2.0981,2.1004,2.101,2.1003,2.1014,2.0991,2.1028,2.0982,2.1032,2.0995,2.1007,2.1006,2.1009,2.101,2.0958,2.1034,2.1166,2.1178,2.1012,2.1011,2.1009,0,2.0935,2.0973,2.1018,2.1024,2.1023,2.1045,2.1046,2.105,2.1063,2.1077,2.1085,2.1104,2.1114,2.1129,2.1111,2.108,2.1164,2.1116,2.1158,2.1159,2.1177,2.1176,2.1311,2.1187,2.1187,2.1187,2.1187,0,2.1042,2.1085,2.1059,2.1087,2.1133,2.1109,2.1156,2.1153,2.1156,2.1182,2.115,2.1175,2.1151,2.1174,2.1161,2.1203,2.1209,2.1203,2.1199,2.1205,2.1206,2.1212,2.1205,2.119,2.119,2.1189,2.1188,0,2.1153,2.1138,2.1184,2.118,2.1179,2.1214,2.121,2.1235,2.1226,2.1259,2.1265,2.1251,2.1276,2.126,2.1286,2.1277,2.1332,2.132,2.1329,2.1326,2.1368,2.1363,2.151,2.1527,2.1395,2.1396,2.1397,0,2.1222,2.1254,2.1252,2.1266,2.1269,2.1294,2.1306,2.1283,2.1298,2.1306,2.133,2.1352,2.1368,2.141,2.1402,2.1421,2.1409,2.1459,2.1411,2.1416,2.1407,2.1405,2.1407,2.1468,2.147,2.1471,2.1472,0,2.1344,2.1334,2.1353,2.1369,2.1385,2.1397,2.1406,2.142,2.1397,2.1415,2.1439,2.1452,2.1477,2.1499,2.1514,2.1515,2.149,2.1487,2.1497,2.1503,2.1506,2.1503,2.1354,2.1483,2.1482,2.1481,2.1481,2.148,2.1435,2.146,2.1462,2.1484,2.1488,2.1497,2.152,2.1513,2.1533,2.1551,2.1536,2.1565,2.1569,2.1587,2.1591,2.1613,2.1593,2.1609,2.1612,2.1616,2.1621,2.1504,2.1617,2.1616,2.1616,2.1616,2.1615,0,2.1553,2.1552,2.1573,2.1586,2.1603,2.1576,2.1585,2.1601,2.1626,2.1632,2.1648,2.1675,2.1696,2.1689,2.1708,2.1727,2.1715,2.1732,2.173,2.173,2.1639,2.1627,2.1741,2.1741,2.1741,2.1741,2.1741,2.1741,2.1617,2.1658,2.1649,2.1691,2.169,2.1717,2.1724,2.1732,2.1736,2.1767,2.1784,2.1779,2.178,2.1798,2.1815,2.1813,2.182,2.1841,2.1834,2.1749,2.1737,2.1725,2.1713,2.1843,2.1843,2.1923,2.1924,2.1924]},{"header":{"parameterUnit":"m.s-1","parameterCategory":1,"la1":30.2991,"la2":30.254,"lo1":-89.0895,"lo2":-89.0444,"dy":0.0017,"dx":0.0017,"nx":28,"ny":28,"refTime":"2024-05-27T09:00:00:Z","depth":0,"parameterNumber":3,"parameterNumberName":"V-component_of_WINDS"},"data":[0,0,0,0,0,0,0,0,0,0,0,0,0,0,0,0,0,0,0,0,0,0,0,0,0,0,0,0,0,0,0,0,0,0,0,0,0,0,0,0,0,0,0,0,0,0,0,0,0,0,0,0,0,0,0,0,0,0,5.5045,5.5046,0,5.5182,5.5183,5.5185,5.514,5.5137,5.5134,5.5131,5.5267,5.5273,5.528,0,0,0,0,0,0,0,0,0,0,0,0,0,5.4739,5.4744,5.5044,5.5046,5.5048,5.5181,5.5183,5.5185,5.514,5.5137,5.5133,5.513,5.5265,5.5273,5.528,0,0,0,0,0,0,0,0,0,0,0,0,0,5.4873,5.4746,5.5044,5.5042,5.5043,5.5181,5.5183,5.5185,5.5141,5.5137,5.5132,5.5128,5.5263,5.5272,5.5281,5.5428,0,0,5.531,5.5314,0,0,0,0,0,0,0,0,5.4865,5.4884,5.504,5.5042,5.5044,5.5139,5.5125,5.5267,5.5142,5.5104,5.5131,5.5126,5.5228,5.524,5.5275,5.5435,5.5441,5.5311,5.5317,5.5321,5.5324,0,0,0,0,0,0,0,5.4856,5.4878,5.5098,5.5043,5.5045,5.5032,5.5046,5.5152,5.5189,5.5107,5.5104,5.5121,5.5228,5.5266,5.5278,5.5443,5.5311,5.5319,5.5325,5.5329,5.5727,5.5732,0,0,0,0,0,0,5.4847,5.4871,5.5094,5.5103,5.4942,5.5041,5.5057,5.5113,5.5187,5.5195,5.5125,5.5118,5.5252,5.5267,5.5283,5.5458,5.5321,5.533,5.5335,5.5722,5.5728,5.5733,0,0,0,0,0,0,5.484,5.4867,5.5089,5.4986,5.5013,5.5051,5.5114,5.5118,5.5156,5.5201,5.5207,5.5157,5.5249,5.5269,5.5392,5.5462,5.5334,5.5343,5.5716,5.5724,5.5731,5.5812,0,0,0,0,0,0,5.4832,5.4865,5.4923,5.4988,5.5019,5.5198,5.5119,5.5124,5.5173,5.5166,5.5233,5.524,5.5247,5.5378,5.5402,5.5473,5.535,5.571,5.572,5.5728,5.5803,5.5821,5.5836,0,0,0,0,0,5.4821,5.494,5.4926,5.4953,5.5092,5.5202,5.522,5.5227,5.5179,5.5236,5.5265,5.5238,5.5451,5.5391,5.5417,5.5493,5.5706,5.5717,5.5728,5.5796,5.5817,5.5836,0,0,0,0,0,0,5.4881,5.4948,5.4934,5.5078,5.5135,5.5194,5.5267,5.525,5.5321,5.5312,5.5316,5.5331,5.5457,5.5487,5.5419,5.5638,5.5571,5.5588,5.5614,5.5635,5.5651,5.5641,5.5358,0,0,0,0,0,5.4911,5.4997,5.505,5.5171,5.5201,5.5229,5.5277,5.5278,5.5337,5.536,5.5398,5.5454,5.5534,5.5586,5.5662,5.5807,5.582,5.5872,5.5888,5.5902,5.5916,5.5993,5.6016,5.5769,5.5769,5.5769,0,0,5.4974,5.5021,5.5075,5.5185,5.5229,5.5315,5.525,5.5344,5.5408,5.5374,5.5493,5.5522,5.5585,5.572,5.5781,5.5748,5.5987,5.5916,5.5926,5.5933,5.6006,5.603,5.605,5.5777,5.5775,5.5774,0,0,5.5132,5.5178,5.5283,5.5329,5.5397,5.5415,5.544,5.5503,5.5521,5.564,5.5616,5.5691,5.5828,5.5874,5.5915,5.6089,5.6066,5.6113,5.62,5.6275,5.6295,5.6312,5.6372,5.6394,5.6127,5.6128,5.6128,0,5.5202,5.5333,5.5339,5.5436,5.5484,5.5458,5.5563,5.5607,5.5696,5.5729,5.5692,5.5863,5.5903,5.6047,5.609,5.6124,5.6152,5.6106,5.6292,5.6309,5.6325,5.6383,5.6406,5.6133,5.6132,5.6132,5.6131,0,5.5413,5.5504,5.5581,5.5668,5.5725,5.5825,5.5845,5.5901,5.5896,5.5917,5.6038,5.6086,5.617,5.6204,5.62,5.6347,5.6325,5.629,5.6223,5.6354,5.6408,5.643,5.614,5.6138,5.6137,5.6136,0,0,5.5614,5.5703,5.5731,5.577,5.5842,5.5912,5.601,5.6093,5.614,5.6202,5.6283,5.64,5.6367,5.6414,5.6415,5.6481,5.6613,5.6437,5.6439,5.6467,5.6776,5.6801,5.6827,5.6599,5.6603,5.6606,5.677,0,5.5777,5.5952,5.596,5.6117,5.62,5.6176,5.6261,5.6314,5.6336,5.6407,5.6431,5.6513,5.6465,5.6492,5.6557,5.6584,5.6675,5.6572,5.6672,5.6676,5.6657,5.6856,5.6883,5.7035,5.6791,5.6795,5.6798,0,5.5992,5.6061,5.6227,5.6286,5.6321,5.6398,5.6474,5.6544,5.6602,5.6613,5.6665,5.6656,5.6754,5.6684,5.6818,5.6748,5.6789,5.6808,5.6814,5.6823,5.6744,5.6869,5.7084,5.7107,5.6831,5.6829,5.6826,0,5.612,5.6254,5.6371,5.6405,5.6477,5.6531,5.6563,5.6617,5.6667,5.6733,5.6764,5.684,5.6882,5.694,5.6951,5.6899,5.7085,5.7016,5.7095,5.7095,5.7135,5.7132,5.7359,5.7163,5.7163,5.7162,5.7162,0,5.6301,5.6403,5.6429,5.6501,5.6614,5.6621,5.6732,5.676,5.6808,5.6883,5.6867,5.6937,5.6947,5.702,5.7028,5.7137,5.7156,5.7166,5.7167,5.7168,5.7166,5.7194,5.7183,5.7168,5.7167,5.7166,5.7165,0,5.6463,5.6485,5.661,5.6668,5.6685,5.6766,5.6814,5.6882,5.6901,5.6996,5.7019,5.7049,5.7134,5.715,5.7249,5.7255,5.7384,5.7375,5.7365,5.7364,5.7441,5.7434,5.7694,5.7728,5.751,5.7513,5.7514,0,5.6577,5.6655,5.6722,5.6771,5.6807,5.6887,5.6937,5.6946,5.6998,5.707,5.7128,5.7211,5.7277,5.7412,5.7442,5.7518,5.7509,5.7595,5.7521,5.7518,5.7509,5.7504,5.7511,5.7609,5.7612,5.7614,5.7615,0,5.6776,5.6783,5.6856,5.6934,5.6994,5.7055,5.7113,5.7154,5.717,5.723,5.7316,5.7368,5.7469,5.7551,5.7626,5.7657,5.7639,5.7639,5.7661,5.7661,5.7652,5.7657,5.7403,5.7632,5.7631,5.7629,5.7629,5.7628,5.6917,5.6985,5.7042,5.7124,5.7168,5.7222,5.7288,5.7316,5.7389,5.7473,5.7473,5.7567,5.7621,5.772,5.7756,5.7828,5.7801,5.7833,5.7841,5.7849,5.7856,5.7641,5.7842,5.7842,5.7841,5.7841,5.784,0,5.7114,5.715,5.7225,5.7306,5.737,5.7349,5.7411,5.7465,5.7549,5.7601,5.7667,5.7765,5.7844,5.788,5.7957,5.8008,5.8001,5.8028,5.8023,5.8031,5.7876,5.7849,5.8032,5.8031,5.8031,5.8031,5.8031,5.8031,5.7224,5.7337,5.735,5.7484,5.7518,5.7611,5.7648,5.7697,5.7739,5.785,5.7916,5.7939,5.7984,5.8064,5.8135,5.8143,5.8171,5.8202,5.8206,5.8061,5.8042,5.8023,5.7997,5.8208,5.8208,5.8354,5.8356,5.8357]}]]